EW3230 West Wareham MA US current weather conditions

sailwx.info

Wind from 293

Air temperature -1.1° C
Dewpoint -1.7° C

Last reported at 2019-Dec-11 16:00 UTC.
Time now 2019-Dec-11 16:50 UTC

Location: N 41°48' W 070°47'.
View on Google Maps.

See reports from other nearby stations

  
Tides and Currents Weather Stations Pressure Air Temp Water Temp Dewpoint Dewpoint Depression Visibility Wind Speed Wind Dir Waves Ship Positions
date/time (UTC)wind fromknots sea level pressurealtimeterstation pressurevisibilityair tempwater tempwave heightnotes
2019-Dec-11 16:00 293 -1.1
2019-Dec-11 15:50 293 -1.1
2019-Dec-11 15:40 246 -1.1
2019-Dec-11 15:30 259 -1.1
2019-Dec-11 15:20 283 -1.1
2019-Dec-11 15:10 311 -1.1
2019-Dec-11 15:00 326 -1.1
2019-Dec-11 14:50 077 -1.1
2019-Dec-11 14:40 311 0 gusting 3 -1.1
2019-Dec-11 14:30 277 -0.6
2019-Dec-11 14:20 242 -0.6
2019-Dec-11 14:10 222 -0.6
2019-Dec-11 14:00 347 -0.6
2019-Dec-11 13:50 250 -0.6
2019-Dec-11 13:40 340 -0.6
2019-Dec-11 13:30 334 0 gusting 3 -0.6
2019-Dec-11 13:20 016 0 gusting 3 -0.6
2019-Dec-11 13:10 342 -0.6
2019-Dec-11 13:00 256 -0.6
2019-Dec-11 12:50 326 -0.6
2019-Dec-11 12:40 314 -0.6
2019-Dec-11 12:30 322 -0.0
2019-Dec-11 12:20 322 -0.0
2019-Dec-11 12:10 245 -0.0
2019-Dec-11 12:00 309 -0.0
2019-Dec-11 11:50 306 -0.0
2019-Dec-11 11:40 300 -0.0
2019-Dec-11 11:30 342 0 gusting 2 -0.0
2019-Dec-11 11:20 302 0 gusting 2 -0.0
2019-Dec-11 11:10 316 0 gusting 4 -0.0
2019-Dec-11 11:00 056 0 gusting 3 -0.0
2019-Dec-11 10:50 340 0 gusting 4 -0.0
2019-Dec-11 10:40 277 0 gusting 6 -0.0
2019-Dec-11 10:30 020 0 gusting 5 0.6
2019-Dec-11 10:20 338 1 gusting 5 0.6
2019-Dec-11 10:10 305 1 gusting 5 0.6
2019-Dec-11 10:00 068 0 gusting 4 0.6
2019-Dec-11 09:50 326 0 gusting 5 1.1
2019-Dec-11 09:40 341 0 gusting 5 1.1
2019-Dec-11 09:30 332 1 gusting 6 1.7
2019-Dec-11 09:20 065 0 gusting 3 1.7
2019-Dec-11 09:09 332 1 gusting 4 2.2
2019-Dec-11 08:59 328 0 gusting 2 2.8
2019-Dec-11 08:49 304 0 gusting 4 3.3
2019-Dec-11 08:39 288 3.3
2019-Dec-11 08:29 322 3.3
2019-Dec-11 08:19 281 3.3
2019-Dec-11 08:09 297 3.9
2019-Dec-11 07:59 276 3.9
2019-Dec-11 07:49 274 3.9
2019-Dec-11 07:39 324 0 gusting 3 3.9
2019-Dec-11 07:29 307 0 gusting 6 3.9
2019-Dec-11 07:19 009 4.4
2019-Dec-11 07:09 311 4.4
2019-Dec-11 06:59 269 4.4
2019-Dec-11 06:49 294 4.4
2019-Dec-11 06:39 122 4.4
2019-Dec-11 06:29 259 0 gusting 3 4.4
2019-Dec-11 06:19 250 4.4
2019-Dec-11 06:09 027 5.0
2019-Dec-11 05:59 336 5.0
2019-Dec-11 05:49 339 5.0
2019-Dec-11 05:39 358 5.0
2019-Dec-11 05:29 315 5.6
2019-Dec-11 05:19 322 0 gusting 6 5.6
2019-Dec-11 05:09 294 0 gusting 6 5.6
2019-Dec-11 04:59 298 0 gusting 3 6.1
2019-Dec-11 04:49 339 6.1
2019-Dec-11 04:39 297 6.7
2019-Dec-11 04:29 341 6.7
2019-Dec-11 04:19 341 6.7
2019-Dec-11 04:09 291 7.2
2019-Dec-11 03:59 285 7.2
2019-Dec-11 03:49 286 7.2
2019-Dec-11 03:39 337 7.2
2019-Dec-11 03:29 046 7.2
2019-Dec-11 03:19 306 7.8
2019-Dec-11 03:09 306 7.8
2019-Dec-11 02:59 306 7.8
2019-Dec-11 02:49 339 7.8
2019-Dec-11 02:38 358 0 gusting 2 7.8
2019-Dec-11 02:28 339 0 gusting 5 7.8
2019-Dec-11 02:18 208 0 gusting 3 8.3
2019-Dec-11 02:08 289 1 gusting 5 8.9
2019-Dec-11 01:58 330 2 gusting 12 9.4
2019-Dec-11 01:48 338 2 gusting 8 11.1
2019-Dec-11 01:38 229 11.7
2019-Dec-11 01:28 201 11.7
2019-Dec-11 01:18 210 11.7
2019-Dec-11 01:08 169 11.7
2019-Dec-11 00:58 201 11.7
2019-Dec-11 00:48 198 11.7
2019-Dec-11 00:38 235 11.7
2019-Dec-11 00:28 222 11.7
2019-Dec-11 00:18 226 0 gusting 4 11.7
2019-Dec-11 00:08 219 0 gusting 6 12.2
2019-Dec-10 23:58 229 0 gusting 2 12.2
2019-Dec-10 23:48 229 0 gusting 4 12.2
2019-Dec-10 23:38 198 0 gusting 4 12.2
2019-Dec-10 23:28 204 0 gusting 5 12.2
2019-Dec-10 23:18 214 0 gusting 3 12.2
2019-Dec-10 23:08 229 0 gusting 5 12.2
2019-Dec-10 22:58 281 0 gusting 4 12.2
2019-Dec-10 22:48 228 1 gusting 5 12.2
2019-Dec-10 22:38 201 0 gusting 4 12.2
2019-Dec-10 22:28 211 0 gusting 3 12.2
2019-Dec-10 22:18 225 1 gusting 4 12.2
2019-Dec-10 22:08 198 0 gusting 5 12.2
2019-Dec-10 21:58 219 0 gusting 5 12.2
2019-Dec-10 21:48 209 0 gusting 4 12.8
2019-Dec-10 21:38 201 0 gusting 4 12.8
2019-Dec-10 21:28 231 0 gusting 3 12.8
2019-Dec-10 21:18 203 0 gusting 3 12.8
2019-Dec-10 21:08 212 0 gusting 3 12.8
2019-Dec-10 20:58 218 0 gusting 4 12.8
2019-Dec-10 20:48 217 0 gusting 3 12.8
2019-Dec-10 20:38 197 12.8
2019-Dec-10 20:28 209 0 gusting 4 12.8
2019-Dec-10 20:18 208 12.8
2019-Dec-10 20:08 260 0 gusting 5 13.3
2019-Dec-10 19:58 207 13.3
2019-Dec-10 19:48 235 13.3
2019-Dec-10 19:38 218 0 gusting 5 13.3
2019-Dec-10 19:28 194 0 gusting 4 13.3
2019-Dec-10 19:17 138 1 gusting 6 13.9
2019-Dec-10 19:07 202 0 gusting 7 13.9
2019-Dec-10 18:57 239 1 gusting 6 13.9
2019-Dec-10 18:47 226 0 gusting 3 13.9
2019-Dec-10 18:37 155 1 gusting 5 13.9
2019-Dec-10 18:27 214 0 gusting 5 13.9
2019-Dec-10 18:17 284 1 gusting 6 13.9
2019-Dec-10 18:07 233 1 gusting 6 13.9
2019-Dec-10 17:57 193 0 gusting 3 13.9
2019-Dec-10 17:47 233 1 gusting 6 13.9
2019-Dec-10 17:37 215 0 gusting 3 14.4
2019-Dec-10 17:27 252 1 gusting 6 14.4
2019-Dec-10 17:17 236 1 gusting 6 14.4
2019-Dec-10 17:07 245 1 gusting 6 14.4
2019-Dec-10 16:57 255 2 gusting 7 15.0
2019-Dec-10 16:47 219 1 gusting 7 15.0
2019-Dec-10 16:37 210 1 gusting 6 15.0
2019-Dec-10 16:27 229 1 gusting 5 15.0
2019-Dec-10 16:17 211 1 gusting 7 14.4
2019-Dec-10 16:07 228 1 gusting 6 14.4
2019-Dec-10 15:57 210 1 gusting 5 14.4
2019-Dec-10 15:47 225 0 gusting 5 14.4
2019-Dec-10 15:37 210 1 gusting 4 14.4
2019-Dec-10 15:27 226 0 gusting 4 14.4
2019-Dec-10 15:17 205 1 gusting 6 14.4
2019-Dec-10 15:07 232 1 gusting 6 14.4
2019-Dec-10 14:57 205 1 gusting 4 13.9
2019-Dec-10 14:47 226 1 gusting 5 13.9
2019-Dec-10 14:37 215 1 gusting 6 13.9
2019-Dec-10 14:27 240 0 gusting 5 13.3
2019-Dec-10 14:17 201 0 gusting 3 13.3
2019-Dec-10 14:07 188 1 gusting 6 13.3
2019-Dec-10 13:57 245 2 gusting 5 13.3
2019-Dec-10 13:47 229 1 gusting 5 13.3
2019-Dec-10 13:37 219 1 gusting 6 13.3
2019-Dec-10 13:27 184 1 gusting 5 13.3
2019-Dec-10 13:17 192 2 gusting 6 13.3
2019-Dec-10 13:07 229 2 gusting 6 13.3
2019-Dec-10 12:57 148 1 gusting 6 13.3
2019-Dec-10 12:47 288 1 gusting 6 13.3
2019-Dec-10 12:37 249 1 gusting 5 13.3
2019-Dec-10 12:27 215 1 gusting 5 13.3
2019-Dec-10 12:17 139 0 gusting 3 13.3
2019-Dec-10 12:07 255 1 gusting 5 13.3
2019-Dec-10 11:57 220 1 gusting 7 13.3
2019-Dec-10 11:47 169 1 gusting 6 13.3
2019-Dec-10 11:37 254 2 gusting 5 13.3
2019-Dec-10 11:27 218 1 gusting 6 13.3
2019-Dec-10 11:17 240 2 gusting 7 13.3
2019-Dec-10 11:07 225 1 gusting 6 13.3
2019-Dec-10 10:57 210 1 gusting 6 13.3
2019-Dec-10 10:47 236 1 gusting 5 13.3
2019-Dec-10 10:37 229 1 gusting 4 13.3
2019-Dec-10 10:27 245 2 gusting 13 13.3
2019-Dec-10 10:17 233 2 gusting 11 13.3
2019-Dec-10 10:07 208 2 gusting 6 13.3
2019-Dec-10 09:57 175 2 gusting 7 13.3
2019-Dec-10 09:47 228 2 gusting 9 13.3
2019-Dec-10 09:37 271 2 gusting 9 13.3
2019-Dec-10 09:27 229 3 gusting 6 13.3
2019-Dec-10 09:17 245 2 gusting 6 13.3
2019-Dec-10 09:07 173 2 gusting 7 13.3
2019-Dec-10 08:57 237 2 gusting 8 13.3
2019-Dec-10 08:47 239 2 gusting 6 13.3
2019-Dec-10 08:37 201 2 gusting 7 13.3
2019-Dec-10 08:26 239 2 gusting 8 13.3
2019-Dec-10 08:16 225 2 gusting 11 13.3
2019-Dec-10 08:06 201 4 gusting 9 13.3
2019-Dec-10 07:56 198 3 gusting 8 13.3
2019-Dec-10 07:46 266 3 gusting 11 13.9
2019-Dec-10 07:36 207 3 gusting 8 13.9
2019-Dec-10 07:26 224 3 gusting 12 13.9
2019-Dec-10 07:16 197 2 gusting 6 13.9
2019-Dec-10 07:06 225 2 gusting 7 13.9
2019-Dec-10 06:56 208 2 gusting 7 13.9
2019-Dec-10 06:46 222 3 gusting 9 14.4
2019-Dec-10 06:36 203 2 gusting 6 14.4
2019-Dec-10 06:26 214 2 gusting 8 14.4
2019-Dec-10 06:16 200 3 gusting 9 14.4
2019-Dec-10 06:06 231 3 gusting 8 14.4
2019-Dec-10 05:56 181 4 gusting 12 14.4
2019-Dec-10 05:46 276 4 gusting 12 14.4
2019-Dec-10 05:36 143 3 gusting 11 14.4
2019-Dec-10 05:26 225 3 gusting 6 14.4
2019-Dec-10 05:16 229 4 gusting 10 14.4
2019-Dec-10 05:06 255 4 gusting 10 14.4
2019-Dec-10 04:56 212 5 gusting 14 14.4
2019-Dec-10 04:46 238 4 gusting 16 14.4
2019-Dec-10 04:36 221 4 gusting 12 14.4
2019-Dec-10 04:26 205 5 gusting 12 14.4
2019-Dec-10 04:16 180 6 gusting 16 14.4
2019-Dec-10 04:06 158 6 gusting 14 14.4
2019-Dec-10 03:56 203 5 gusting 13 14.4
2019-Dec-10 03:46 212 4 gusting 8 14.4
2019-Dec-10 03:36 184 5 gusting 11 14.4
2019-Dec-10 03:26 208 5 gusting 13 14.4
2019-Dec-10 03:16 232 5 gusting 12 14.4
2019-Dec-10 03:06 210 5 gusting 10 14.4
2019-Dec-10 02:56 214 5 gusting 13 14.4
2019-Dec-10 02:46 220 5 gusting 12 14.4
2019-Dec-10 02:36 156 3 gusting 8 14.4
2019-Dec-10 02:26 263 3 gusting 8 13.9
2019-Dec-10 02:16 206 3 gusting 6 13.9
2019-Dec-10 02:06 248 3 gusting 6 13.9
2019-Dec-10 01:56 240 3 gusting 9 13.9
2019-Dec-10 01:46 215 2 gusting 6 13.9
2019-Dec-10 01:36 215 2 gusting 8 13.3
2019-Dec-10 01:26 167 1 gusting 4 13.3
2019-Dec-10 01:16 201 1 gusting 4 13.3
2019-Dec-10 01:06 209 1 gusting 5 13.3
2019-Dec-10 00:56 208 1 gusting 6 13.3
2019-Dec-10 00:46 198 1 gusting 3 13.3
2019-Dec-10 00:36 177 1 gusting 4 13.3
2019-Dec-10 00:26 226 1 gusting 5 13.3
2019-Dec-10 00:16 217 1 gusting 5 13.3
2019-Dec-10 00:06 248 1 gusting 6 13.3
2019-Dec-09 23:56 212 2 gusting 7 13.3
2019-Dec-09 23:46 219 2 gusting 7 13.3
2019-Dec-09 23:36 255 3 gusting 7 12.8
2019-Dec-09 23:26 224 3 gusting 7 12.8
2019-Dec-09 23:16 208 4 gusting 8 12.8
2019-Dec-09 23:06 204 2 gusting 9 12.8
2019-Dec-09 22:56 210 2 gusting 7 12.2
2019-Dec-09 22:46 201 2 gusting 6 11.7
2019-Dec-09 22:36 194 1 gusting 6 11.7
2019-Dec-09 22:26 200 1 gusting 4 11.7
2019-Dec-09 22:16 212 1 gusting 4 11.7
2019-Dec-09 22:06 232 2 gusting 6 11.7
2019-Dec-09 21:56 222 2 gusting 6 11.7
2019-Dec-09 21:46 193 1 gusting 5 11.7
2019-Dec-09 21:36 198 2 gusting 5 11.7
2019-Dec-09 21:26 210 3 gusting 10 11.7
2019-Dec-09 21:16 149 3 gusting 6 11.7
2019-Dec-09 21:06 212 2 gusting 6 11.7
2019-Dec-09 20:56 148 2 gusting 7 11.7
2019-Dec-09 20:46 167 2 gusting 5 11.7
2019-Dec-09 20:35 225 2 gusting 9 11.7
2019-Dec-09 20:25 169 2 gusting 5 11.7
2019-Dec-09 20:15 204 2 gusting 6 11.7
2019-Dec-09 20:05 165 2 gusting 6 11.7
2019-Dec-09 19:55 148 2 gusting 6 11.7
2019-Dec-09 19:45 219 1 gusting 3 11.7
2019-Dec-09 19:35 189 2 gusting 8 12.2
2019-Dec-09 19:25 167 1 gusting 4 11.7
2019-Dec-09 19:15 190 2 gusting 6 11.7
2019-Dec-09 19:05 161 2 gusting 7 11.7
2019-Dec-09 18:55 187 2 gusting 6 11.7
2019-Dec-09 18:45 193 2 gusting 7 11.7
2019-Dec-09 18:35 191 2 gusting 6 11.7
2019-Dec-09 18:25 150 2 gusting 6 11.7
2019-Dec-09 18:15 169 2 gusting 6 11.7
2019-Dec-09 18:05 187 2 gusting 7 11.7
2019-Dec-09 17:55 160 1 gusting 4 11.7
2019-Dec-09 17:46 236 1 gusting 6 11.7
2019-Dec-09 17:39 204 1 gusting 4 11.7
2019-Dec-09 17:25 176 0 gusting 4 11.7
2019-Dec-09 17:15 184 0 gusting 4 11.7
2019-Dec-09 17:05 149 0 gusting 4 11.7
2019-Dec-09 16:55 208 1 gusting 5 11.1
2019-Dec-09 16:45 218 1 gusting 5 11.1
2019-Dec-09 16:35 238 0 gusting 4 10.6
2019-Dec-09 16:25 207 0 gusting 4 10.6
2019-Dec-09 16:15 198 1 gusting 5 10.6
2019-Dec-09 16:05 195 10.6